KE8BSM Weather Reports


Display with metric or nautical units.
time (UTC)temp
F
wind
direction
speed
MPH
gust
MPH
rain 1hr
in
rain 24hr
in
rain mn
in
humidity
%
barometer
mb
20260906161216 71 143 2.0 3.0 0.00 0.00 0.00 71 1017.6
20260906160716 71 137 2.0 2.0 0.00 0.00 0.00 70 1017.6
20260906160216 71 141 0.0 0.0 0.00 0.00 0.00 71 1017.5
20260906155716 71 0.0 0.0 0.00 0.00 0.00 73 1017.6
20260906155216 71 96 0.0 1.0 0.00 0.00 0.00 71 1017.6
20260906154737 71 130 1.0 2.0 0.00 0.00 0.00 70 1017.6
20260906154217 70 0.0 0.0 0.00 0.00 0.00 72 1017.8
20260906153717 70 0.0 0.0 0.00 0.00 0.00 74 1017.8
20260906153217 70 293 1.0 1.0 0.00 0.00 0.00 73 1017.8
20260906152717 70 0.0 0.0 0.00 0.00 0.00 73 1017.8
20260906152217 70 0.0 0.0 0.00 0.00 0.00 73 1017.8
20260906151717 70 131 0.0 1.0 0.00 0.00 0.00 73 1017.7
20260906151217 69 138 1.0 1.0 0.00 0.00 0.00 74 1017.7
20260906150717 69 160 0.0 1.0 0.00 0.00 0.00 76 1017.7
20260906150218 69 0.0 0.0 0.00 0.00 0.00 79 1017.7
20260906145718 69 360 1.0 1.0 0.00 0.00 0.00 78 1017.7
20260906145218 68 306 0.0 0.0 0.00 0.00 0.00 78 1017.6
20260906144718 68 165 0.0 0.0 0.00 0.00 0.00 77 1017.5
20260906144218 68 0.0 0.0 0.00 0.00 0.00 79 1017.5
20260906143718 68 0.0 0.0 0.00 0.00 0.00 80 1017.5
20260906143218 67 54 1.0 2.0 0.00 0.00 0.00 79 1017.5
20260906142738 67 134 1.0 2.0 0.00 0.00 0.00 79 1017.4
20260906142218 67 142 2.0 4.0 0.00 0.00 0.00 80 1017.4
20260906141818 67 0.0 0.0 0.00 0.00 0.00 82 1017.4
20260906141218 67 0.0 0.0 0.00 0.00 0.00 81 1017.3
20260906140718 66 0.0 0.0 0.00 0.00 0.00 82 1017.3
20260906140238 66 0.0 0.0 0.00 0.00 0.00 82 1017.3
20260906135718 66 108 0.0 1.0 0.00 0.00 0.00 82 1017.3
20260906135218 65 0.0 0.0 0.00 0.00 0.00 83 1017.2
20260906134718 65 135 1.0 2.0 0.00 0.00 0.00 83 1017.2
20260906134219 65 0.0 0.0 0.00 0.00 0.00 84 1017.2
20260906133719 64 0.0 0.0 0.00 0.00 0.00 84 1017.2
20260906133219 64 126 0.0 1.0 0.00 0.00 0.00 84 1017.3
20260906132719 64 0.0 0.0 0.00 0.00 0.00 85 1017.3
20260906132219 63 0.0 0.0 0.00 0.00 0.00 86 1017.3
20260906131719 63 0.0 0.0 0.00 0.00 0.00 87 1017.3
20260906131219 62 0.0 0.0 0.00 0.00 0.00 87 1017.3
20260906130739 62 287 0.0 0.0 0.00 0.00 0.00 88 1017.4
20260906130219 62 0.0 0.0 0.00 0.00 0.00 89 1017.4
20260906125819 61 0.0 0.0 0.00 0.00 0.00 89 1017.4
20260906125219 61 0.0 0.0 0.00 0.00 0.00 91 1017.3
20260906124720 60 0.0 0.0 0.00 0.00 0.00 92 1017.2
20260906124220 60 0.0 0.0 0.00 0.00 0.00 93 1017.2
20260906123720 60 0.0 0.0 0.00 0.00 0.00 95 1017.1
20260906123220 59 0.0 0.0 0.00 0.00 0.00 96 1017.1
20260906122720 59 0.0 0.0 0.00 0.00 0.00 96 1017.1
20260906122220 59 0.0 0.0 0.00 0.00 0.00 96 1017.0
20260906121720 59 0.0 0.0 0.00 0.00 0.00 95 1016.9
20260906121220 59 0.0 0.0 0.00 0.00 0.00 95 1016.8
20260906120720 58 0.0 0.0 0.00 0.00 0.00 97 1016.8
20260906120240 58 0.0 0.0 0.00 0.00 0.00 97 1016.9
20260906115720 58 301 0.0 1.0 0.00 0.00 0.00 97 1016.8
20260906115220 58 329 0.0 1.0 0.00 0.00 0.00 96 1016.7
20260906114720 58 303 0.0 0.0 0.00 0.00 0.00 96 1016.6
20260906114220 58 295 1.0 2.0 0.00 0.00 0.00 96 1016.6
20260906113720 58 0.0 0.0 0.00 0.00 0.00 96 1016.4
20260906113221 58 0.0 0.0 0.00 0.00 0.00 97 1016.4
20260906112721 58 0.0 0.0 0.00 0.00 0.00 97 1016.4
20260906112221 58 0.0 0.0 0.00 0.00 0.00 97 1016.4
20260906111721 58 0.0 0.0 0.00 0.00 0.00 96 1016.4
20260906111221 58 0.0 0.0 0.00 0.00 0.00 96 1016.4
20260906110721 58 0.0 0.0 0.00 0.00 0.00 95 1016.4
20260906110221 58 0.0 0.0 0.00 0.00 0.00 95 1016.3
20260906105721 58 0.0 0.0 0.00 0.00 0.00 94 1016.3
20260906105241 58 0.0 0.0 0.00 0.00 0.00 94 1016.3
20260906104721 58 0.0 0.0 0.00 0.00 0.00 95 1016.3
20260906104222 58 0.0 0.0 0.00 0.00 0.00 95 1016.2
20260906103722 58 0.0 0.0 0.00 0.00 0.00 93 1016.3
20260906103222 58 0.0 0.0 0.00 0.00 0.00 93 1016.3
20260906102722 59 0.0 0.0 0.00 0.00 0.00 94 1016.4
20260906102222 59 354 1.0 1.0 0.00 0.00 0.00 95 1016.3
20260906101722 59 0.0 0.0 0.00 0.00 0.00 93 1016.3
20260906101222 59 0.0 0.0 0.00 0.00 0.00 93 1016.3
20260906100722 59 0.0 0.0 0.00 0.00 0.00 92 1016.3
20260906100222 59 0.0 0.0 0.00 0.00 0.00 93 1016.2
20260906095722 59 0.0 0.0 0.00 0.00 0.00 92 1016.1
20260906095222 59 0.0 0.0 0.00 0.00 0.00 91 1016.1
20260906094723 59 0.0 0.0 0.00 0.00 0.00 90 1016.0
20260906094222 59 0.0 0.0 0.00 0.00 0.00 90 1016.1
20260906093723 60 0.0 0.0 0.00 0.00 0.00 90 1016.1
20260906093223 60 0.0 0.0 0.00 0.00 0.00 91 1016.1
20260906092723 60 0.0 0.0 0.00 0.00 0.00 90 1016.1
20260906092223 60 0.0 0.0 0.00 0.00 0.00 90 1016.0
20260906091723 60 326 0.0 1.0 0.00 0.00 0.00 90 1016.1
20260906091223 60 317 0.0 0.0 0.00 0.00 0.00 89 1016.1
20260906090744 61 0.0 0.0 0.00 0.00 0.00 89 1016.1
20260906090224 61 0.0 0.0 0.00 0.00 0.00 88 1016.0
20260906085723 61 0.0 0.0 0.00 0.00 0.00 86 1016.0
20260906085223 61 0.0 0.0 0.00 0.00 0.00 86 1015.9
20260906084723 61 0.0 0.0 0.00 0.00 0.00 86 1015.8
20260906084243 61 0.0 0.0 0.00 0.00 0.00 86 1015.6
20260906083724 61 0.0 0.0 0.00 0.00 0.00 85 1015.5
20260906083223 61 0.0 0.0 0.00 0.00 0.00 84 1015.5
20260906082724 61 0.0 0.0 0.00 0.00 0.00 85 1015.5
20260906082224 61 0.0 0.0 0.00 0.00 0.00 85 1015.4
20260906081724 61 0.0 0.0 0.00 0.00 0.00 84 1015.4
20260906081224 62 0.0 0.0 0.00 0.00 0.00 84 1015.4
20260906080724 62 0.0 0.0 0.00 0.00 0.00 84 1015.4
20260906080224 62 0.0 0.0 0.00 0.00 0.00 84 1015.3
20260906075744 62 0.0 0.0 0.00 0.00 0.00 84 1015.3
20260906075244 62 0.0 0.0 0.00 0.00 0.00 84 1015.2
20260906074724 62 0.0 0.0 0.00 0.00 0.00 84 1015.2
20260906074225 62 0.0 0.0 0.00 0.00 0.00 83 1015.3
20260906073725 62 0.0 0.0 0.00 0.00 0.00 83 1015.4
20260906073225 62 0.0 0.0 0.00 0.00 0.00 82 1015.3
20260906072725 62 0.0 0.0 0.00 0.00 0.00 82 1015.1
20260906072306 62 0.0 0.0 0.00 0.00 0.00 82 1015.1
20260906071725 63 0.0 0.0 0.00 0.00 0.00 82 1015.2
20260906071225 63 0.0 0.0 0.00 0.00 0.00 81 1015.3
20260906070725 63 0.0 0.0 0.00 0.00 0.00 81 1015.3
20260906070225 63 0.0 0.0 0.00 0.00 0.00 81 1015.3
20260906065725 63 0.0 0.0 0.00 0.00 0.00 80 1015.3
20260906065225 63 0.0 0.0 0.00 0.00 0.00 80 1015.3
20260906064725 63 0.0 0.0 0.00 0.00 0.00 79 1015.3
20260906064225 64 0.0 0.0 0.00 0.00 0.00 79 1015.2
20260906063725 64 0.0 0.0 0.00 0.00 0.00 79 1015.2
20260906063226 64 0.0 0.0 0.00 0.00 0.00 78 1015.2
20260906062726 64 0.0 0.0 0.00 0.00 0.00 79 1015.4
20260906062226 64 0.0 0.0 0.00 0.00 0.00 78 1015.4
20260906061726 64 0.0 0.0 0.00 0.00 0.00 78 1015.4
20260906061246 64 0.0 0.0 0.00 0.00 0.00 79 1015.4
20260906060726 64 0.0 0.0 0.00 0.00 0.00 80 1015.4
20260906060246 65 0.0 0.0 0.00 0.00 0.00 79 1015.3
20260906055737 65 0.0 0.0 0.00 0.00 0.00 80 1015.3
20260906055217 65 0.0 0.0 0.00 0.00 0.00 79 1015.2
20260906054737 65 0.0 0.0 0.00 0.00 0.00 77 1015.2
20260906054218 66 0.0 0.0 0.00 0.00 0.00 77 1015.2
20260906053718 66 0.0 0.0 0.00 0.00 0.00 77 1015.2
20260906053218 66 0.0 0.0 0.00 0.00 0.00 77 1015.2
20260906052718 66 0.0 0.0 0.00 0.00 0.00 76 1015.1
20260906052218 66 0.0 0.0 0.00 0.00 0.00 75 1015.0
20260906051718 66 0.0 0.0 0.00 0.00 0.00 76 1015.0
20260906051215 66 132 1.0 2.0 0.00 0.00 0.00 75 1015.0
20260906050715 67 128 0.0 0.0 0.00 0.00 0.00 75 1014.9
20260906050215 67 131 0.0 1.0 0.00 0.00 0.00 75 1014.9
20260906045715 67 132 0.0 1.0 0.00 0.00 0.00 74 1014.9
20260906045215 67 134 0.0 3.0 0.00 0.00 0.00 74 1014.9
20260906044736 67 0.0 0.0 0.00 0.00 0.00 74 1014.9
20260906044215 67 139 1.0 4.0 0.00 0.00 0.00 73 1014.9
20260906043736 68 0.0 0.0 0.00 0.00 0.00 72 1014.8
20260906043216 68 128 1.0 2.0 0.00 0.00 0.00 72 1014.7
20260906042716 68 144 0.0 1.0 0.00 0.00 0.00 72 1014.6
20260906042216 68 145 1.0 2.0 0.00 0.00 0.00 72 1014.5
20260906041716 68 131 1.0 3.0 0.00 0.00 0.00 72 1014.4
20260906041217 68 130 1.0 2.0 0.00 0.00 0.00 72 1014.5
20260906040716 68 129 0.0 1.0 0.00 0.00 0.00 72 1014.5
20260906040216 68 127 0.0 1.0 0.00 0.00 0.00 73 1014.5
20260906035716 69 144 0.0 1.0 0.00 0.00 0.00 73 1014.5
20260906035216 69 0.0 0.0 0.00 0.00 0.00 73 1014.4
20260906034717 69 0.0 0.0 0.00 0.00 0.00 73 1014.4
20260906034216 69 140 0.0 1.0 0.00 0.00 0.00 74 1014.3
20260906033717 69 127 0.0 1.0 0.00 0.00 0.00 74 1014.3
20260906033217 69 123 0.0 1.0 0.00 0.00 0.00 74 1014.2
20260906032717 69 144 0.0 1.0 0.00 0.00 0.00 74 1014.2
20260906032217 69 0.0 0.0 0.00 0.00 0.00 75 1014.2
20260906031717 69 126 0.0 2.0 0.00 0.00 0.00 75 1014.3
20260906031237 69 0.0 0.0 0.00 0.00 0.00 76 1014.3
20260906030717 69 134 0.0 1.0 0.00 0.00 0.00 76 1014.2
20260906030217 69 0.0 0.0 0.00 0.00 0.00 77 1014.2
20260906025717 70 0.0 0.0 0.00 0.00 0.00 77 1014.1
20260906025217 70 0.0 0.0 0.00 0.00 0.00 77 1014.1
20260906024717 70 0.0 0.0 0.00 0.00 0.00 76 1014.0
20260906024217 70 0.0 0.0 0.00 0.00 0.00 76 1014.0
20260906023718 71 0.0 0.0 0.00 0.00 0.00 75 1013.9
20260906023218 71 0.0 0.0 0.00 0.00 0.00 75 1013.8
20260906022718 71 0.0 0.0 0.00 0.00 0.00 74 1013.8
20260906022218 71 0.0 0.0 0.00 0.00 0.00 73 1013.7
20260906021718 71 0.0 0.0 0.00 0.00 0.00 73 1013.7
20260906021218 72 101 0.0 0.0 0.00 0.00 0.00 73 1013.6
20260906020718 72 0.0 0.0 0.00 0.00 0.00 72 1013.6
20260906020235 72 0.0 0.0 0.00 0.00 0.00 72 1013.6
20260906015715 72 0.0 0.0 0.00 0.00 0.00 72 1013.6
20260906015215 73 0.0 0.0 0.00 0.00 0.00 72 1013.6
20260906014715 73 0.0 0.0 0.00 0.00 0.00 72 1013.5
20260906014215 73 121 0.0 0.0 0.00 0.00 0.00 72 1013.5
20260906013715 73 0.0 0.0 0.00 0.00 0.00 72 1013.5
20260906013216 73 0.0 0.0 0.00 0.00 0.00 72 1013.4
20260906012716 73 143 0.0 2.0 0.00 0.00 0.00 73 1013.3
20260906012216 73 108 0.0 1.0 0.00 0.00 0.00 73 1013.2
20260906011716 73 0.0 0.0 0.00 0.00 0.00 75 1013.2
20260906011216 73 103 0.0 1.0 0.00 0.00 0.00 77 1013.1
20260906010716 73 134 0.0 1.0 0.00 0.00 0.00 79 1013.1
20260906010216 73 0.0 0.0 0.00 0.00 0.00 80 1013.0
20260906005716 73 0.0 0.0 0.00 0.00 0.00 79 1012.9
20260906005516 73 0.0 0.0 0.00 0.00 0.00 79 1012.9
20260906005016 73 0.0 0.0 0.00 0.00 0.00 79 1012.9
20260906004516 73 0.0 0.0 0.00 0.00 0.00 79 1012.9
20260906004016 73 0.0 0.0 0.00 0.00 0.00 80 1012.9
20260906003517 73 0.0 0.0 0.00 0.00 0.00 81 1012.7
20260906003016 73 0.0 0.0 0.00 0.00 0.00 80 1012.7
20260906002516 74 0.0 0.0 0.00 0.00 0.00 80 1012.7
20260906002016 74 0.0 0.0 0.00 0.00 0.00 81 1012.8
20260906001537 74 0.0 0.0 0.00 0.00 0.00 80 1012.7
20260906001017 74 0.0 0.0 0.00 0.00 0.00 80 1012.7
20260906000617 74 0.0 0.0 0.00 0.00 0.00 80 1012.8
20260906000017 75 0.0 0.0 0.00 0.00 0.00 78 1012.7
20260905235517 75 0.0 0.0 0.00 0.00 0.00 78 1012.7
20260905235017 75 0.0 0.0 0.00 0.00 0.00 78 1012.7
20260905234517 75 0.0 0.0 0.00 0.00 0.00 78 1012.8
20260905234017 75 0.0 0.0 0.00 0.00 0.00 79 1012.8
20260905233518 75 0.0 0.0 0.00 0.00 0.00 78 1012.8
20260905233017 76 73 0.0 1.0 0.00 0.00 0.00 78 1012.7
20260905232518 76 0.0 0.0 0.00 0.00 0.00 78 1012.7
20260905232018 76 0.0 0.0 0.00 0.00 0.00 78 1012.6
20260905231518 76 0.0 0.0 0.00 0.00 0.00 76 1012.5
20260905231018 77 0.0 0.0 0.00 0.00 0.00 77 1012.6
20260905230518 77 0.0 0.0 0.00 0.00 0.00 76 1012.6
20260905230018 77 0.0 0.0 0.00 0.00 0.00 73 1012.6
20260905225518 77 0.0 0.0 0.00 0.00 0.00 73 1012.6
20260905225015 78 0.0 0.0 0.00 0.00 0.00 74 1012.5
20260905224535 78 0.0 0.0 0.00 0.00 0.00 73 1012.5
20260905224015 79 0.0 0.0 0.00 0.00 0.00 71 1012.5
20260905223515 79 344 0.0 0.0 0.00 0.00 0.00 70 1012.5
20260905223016 80 0.0 0.0 0.00 0.00 0.00 69 1012.5
20260905222515 80 132 1.0 2.0 0.00 0.00 0.00 68 1012.4
20260905222016 80 90 0.0 1.0 0.00 0.00 0.00 68 1012.3
20260905221516 79 134 0.0 1.0 0.00 0.00 0.00 68 1012.2
20260905221016 79 158 0.0 1.0 0.00 0.00 0.00 71 1012.1
20260905220516 78 288 1.0 4.0 0.00 0.00 0.00 72 1012.1
20260905220036 78 129 1.0 2.0 0.00 0.00 0.00 73 1012.1
20260905215516 77 0.0 0.0 0.00 0.00 0.00 74 1012.0
20260905215016 76 0.0 0.0 0.00 0.00 0.00 75 1012.0
20260905214516 76 145 0.0 1.0 0.00 0.00 0.00 76 1012.1
20260905214016 76 132 0.0 0.0 0.00 0.00 0.00 75 1012.0
20260905213517 76 147 0.0 2.0 0.00 0.00 0.00 75 1012.1
20260905213016 76 0.0 0.0 0.00 0.00 0.00 76 1012.1
20260905212519 76 0.0 0.0 0.00 0.00 0.00 77 1012.1
20260905212020 76 0.0 0.0 0.00 0.00 0.00 77 1012.1
20260905211520 76 0.0 0.0 0.00 0.00 0.00 76 1012.1
20260905211020 76 138 0.0 0.0 0.00 0.00 0.00 76 1012.1
20260905210520 76 125 0.0 0.0 0.00 0.00 0.00 78 1012.0
20260905210020 76 0.0 0.0 0.00 0.00 0.00 78 1012.0
20260905205541 75 129 1.0 2.0 0.00 0.00 0.00 79 1012.0
20260905205020 75 122 1.0 1.0 0.00 0.00 0.00 81 1012.0
20260905204520 74 143 0.0 1.0 0.00 0.00 0.00 82 1012.1
20260905204040 74 0.0 0.0 0.00 0.00 0.00 82 1012.1
20260905203520 74 129 0.0 1.0 0.00 0.00 0.00 83 1012.2
20260905203021 74 129 1.0 2.0 0.00 0.00 0.00 85 1012.3
20260905202521 73 143 1.0 1.0 0.00 0.00 0.00 86 1012.3
20260905202040 73 0.0 0.0 0.00 0.00 0.00 86 1012.3
20260905201521 73 0.0 0.0 0.00 0.00 0.00 86 1012.4
20260905201041 73 0.0 0.0 0.00 0.00 0.00 88 1012.4
20260905200541 72 323 0.0 0.0 0.00 0.00 0.00 88 1012.4
20260905200021 72 355 0.0 1.0 0.00 0.00 0.00 89 1012.5
20260905195601 72 17 1.0 2.0 0.00 0.00 0.00 88 1012.5
20260905195021 72 120 0.0 1.0 0.00 0.00 0.00 89 1012.5
20260905194541 71 145 0.0 1.0 0.00 0.00 0.00 89 1012.5
20260905194022 71 0.0 0.0 0.00 0.00 0.00 89 1012.6
20260905193522 71 131 1.0 1.0 0.00 0.00 0.00 90 1012.7
20260905193022 71 0.0 0.0 0.00 0.00 0.00 90 1012.7
20260905192522 70 117 0.0 1.0 0.00 0.00 0.00 91 1012.8
20260905192022 70 142 1.0 2.0 0.00 0.00 0.00 92 1012.8
20260905191522 70 144 2.0 2.0 0.00 0.00 0.00 93 1012.8
20260905191042 70 131 1.0 1.0 0.00 0.00 0.00 94 1012.8
20260905190522 70 0.0 0.0 0.00 0.00 0.00 94 1012.8
20260905190022 70 301 0.0 0.0 0.00 0.00 0.00 94 1012.9
20260905185543 70 66 1.0 2.0 0.00 0.00 0.00 94 1012.9
20260905185022 70 15 1.0 2.0 0.00 0.00 0.00 93 1013.0
20260905184522 70 0.0 0.0 0.00 0.00 0.00 92 1013.0
20260905184022 70 0.0 0.0 0.00 0.00 0.00 91 1013.0
20260905183523 70 137 3.0 4.0 0.00 0.00 0.00 91 1013.1
20260905183022 70 0.0 0.0 0.00 0.00 0.00 90 1013.1
20260905182543 70 289 1.0 2.0 0.00 0.00 0.00 90 1013.1
20260905182022 70 127 1.0 2.0 0.00 0.00 0.00 89 1013.0
20260905181523 70 0.0 0.0 0.00 0.00 0.00 90 1013.0
20260905181043 70 0.0 0.0 0.00 0.00 0.00 90 1013.0
20260905180523 70 0.0 0.0 0.00 0.00 0.00 90 1013.0
20260905180023 70 0.0 0.0 0.00 0.00 0.00 90 1013.0
20260905175543 70 0.0 0.0 0.00 0.00 0.00 89 1013.0
20260905175023 70 122 0.0 1.0 0.00 0.00 0.00 89 1013.0
20260905174523 70 129 1.0 3.0 0.00 0.00 0.00 89 1012.9
20260905174023 70 10 1.0 1.0 0.00 0.00 0.00 90 1012.9
20260905173543 70 120 1.0 1.0 0.00 0.00 0.00 90 1012.8
20260905173024 70 0.0 0.0 0.00 0.00 0.00 90 1012.7
20260905172524 70 101 1.0 1.0 0.00 0.00 0.00 90 1012.7
20260905172024 70 130 1.0 1.0 0.00 0.00 0.00 90 1012.8
20260905171524 70 0.0 0.0 0.00 0.00 0.00 91 1012.8
20260905171024 69 0.0 0.0 0.00 0.00 0.00 92 1012.9
20260905170524 69 0.0 0.0 0.00 0.00 0.00 92 1012.9
20260905170024 69 140 1.0 1.0 0.00 0.00 0.00 92 1012.9
20260905165524 69 0.0 0.0 0.00 0.00 0.00 93 1012.8
20260905165024 69 141 0.0 0.0 0.00 0.00 0.00 94 1012.8
20260905164524 69 0.0 0.0 0.00 0.00 0.00 93 1012.9
20260905164025 69 132 1.0 1.0 0.00 0.00 0.00 93 1012.9
20260905163524 69 133 0.0 1.0 0.00 0.00 0.00 92 1012.9
20260905163024 69 0.0 0.0 0.00 0.00 0.00 92 1012.9
20260905162545 69 145 1.0 1.0 0.00 0.00 0.00 91 1013.0
20260905162024 69 0.0 0.0 0.00 0.00 0.00 91 1013.0